This is the latest recevied weather packets stored in our database for station/object KB3UMW-13. If no packets are shown the sender has not sent any weather packets the latest 10 day(s).
| Time | Temp. | Humidity | Pressure | Rain* | Wind** | Luminosity | Snow |
|---|---|---|---|---|---|---|---|
| 1777484656 | 14.44° C | 99% | 1009.1 hPa | 2.29 mm | - | 114 W/m² | - |
| 1777484353 | 14.44° C | 99% | 1009.2 hPa | 4.83 mm | - | 89 W/m² | - |
| 1777484048 | 14.44° C | 99% | 1009.7 hPa | 8.38 mm | - | 53 W/m² | - |
| 1777483745 | 14.44° C | 99% | 1009.5 hPa | 6.1 mm | - | 30 W/m² | - |
| 1777483441 | 15° C | 99% | 1009.5 hPa | 0.51 mm | - | 38 W/m² | - |
| 1777483136 | 15° C | 99% | 1009.8 hPa | 0 mm | - | 81 W/m² | - |
| 1777482834 | 15° C | 99% | 1009.7 hPa | 0 mm | - | 123 W/m² | - |
| 1777482529 | 15° C | 99% | 1010 hPa | 0.51 mm | - | 105 W/m² | - |
| 1777482227 | 15° C | 99% | 1010.1 hPa | 0 mm | - | 65 W/m² | - |
| 1777481924 | 15° C | 99% | 1010.1 hPa | 0 mm | - | 76 W/m² | - |
| 1777481622 | 15° C | 99% | 1010.2 hPa | 0 mm | - | 76 W/m² | - |
| 1777481319 | 15° C | 99% | 1010 hPa | 0 mm | - | 130 W/m² | - |
| 1777481015 | 15.56° C | 99% | 1010.2 hPa | 0 mm | - | 215 W/m² | - |
| 1777480712 | 15° C | 99% | 1010.1 hPa | 0 mm | - | 252 W/m² | - |
| 1777480409 | 14.44° C | 99% | 1010.3 hPa | 0 mm | - | 206 W/m² | - |
| 1777480104 | 15° C | 99% | 1010.5 hPa | 0 mm | - | 152 W/m² | - |
| 1777479801 | 15° C | 99% | 1010.5 hPa | 0 mm | - | 149 W/m² | - |
| 1777479498 | 15° C | 99% | 1010.4 hPa | 0 mm | - | 265 W/m² | - |
| 1777479195 | 14.44° C | 99% | 1010.6 hPa | 0 mm | - | 301 W/m² | - |
| 1777478892 | 14.44° C | 99% | 1010.6 hPa | 0 mm | - | 287 W/m² | - |
| 1777478589 | 14.44° C | 99% | 1010.7 hPa | 0 mm | - | 288 W/m² | - |
| 1777478286 | 14.44° C | 99% | 1011 hPa | 0 mm | - | 142 W/m² | - |
| 1777477982 | 13.89° C | 99% | 1011.4 hPa | 0 mm | - | 167 W/m² | - |
| 1777477677 | 13.89° C | 99% | 1011 hPa | 0 mm | - | 243 W/m² | - |
| 1777477374 | 13.89° C | 99% | 1011.3 hPa | 0 mm | - | 234 W/m² | - |
* Rain latest hour (hover to see other rain measurements)
** Current wind speed in m/s (hover to see current wind gust speed)